THORAD AGENA D DEB, 4645

Orbit data source: Space-Track

THORAD AGENA D DEB, 4645 is space debris in SSO originally from a launch on Wed, 08 Apr 1970 UTC launched from the Air Force Western Test Range (AFWTR). Debris objects in space refer to the collection of defunct objects orbiting the Earth. Examples of debris include non-operational satellites, rocket bodies, and fragments generated from explosions, collisions, or faulty payload assembly.

Loading next visibility...
Identifier
4645, 1970-025AD
Orbit
SSO
Last TLE update
17 hours ago
Origin
Manufacturer
Unknown
Mission
Spacecraft
Bus & Motor
Unknown
Mass
Unknown
Launch date (UTC)
1970-04-08 (55 years ago)
Launch vehicle
Unknown
Launch site
Air Force Western Test Range (AFWTR)
Object type
Payload
Rocket body
Debris
Shape & HBR
Unknown
Radar Cross Section
Small (<0.1 m²)

Expand to show TLE details & history

TLE from 17 hours ago
0 THORAD AGENA D DEB
1 04645U 70025AD  25183.51706162  .00000103  00000-0  45662-3 0  9990
2 04645  99.9318 266.8326 0327390 297.2448  75.9540 12.86529312590466
Epoch: 2025-07-02T12:24Z
TLE epoch observation values (Epoch: 2025-07-02T12:24:34.123Z)
Latitude
16.59809°
Longitude
156.91665°
Altitude
1,264.108 km
Speed
7.25 km/s
True Right ascension
17h 35m 25s
True Declination
16° 30' 37"
Sunlit
Object was in full shadow at epoch
Visualization orbit readout
Latitude
22.88671°
Longitude
156.30139°
Altitude
1,298.866 km
Speed
7.218 km/s
Apparent Right ascension
18h 43m 13s
Apparent Declination
-25° 13' 01"
Sunlit
Object is in full shadow
Visualization observer readout
Local Sidereal Time
16:59:50
Azimuth
155.089° SSE
Elevation
20.555°
Doppler factor
1
Orbital elements
Apogee altitude
1,564.515 km
Perigee altitude
1,060.932 km
Semi-major axis
7,690.861 km
Eccentricity
0.03274
Inclination
99.9318°
RAAN
266.8326°
Arg. of periapsis
297.2448°
True anomaly
Unknown
Mean anomaly
75.954°
Eccentric anomaly
Unknown
Mean motion
3.21796 °/min
Orbital period
111.87 mins
BSTAR
0.00045662
Loading maneuver chart data...
Loading SW <> Apogee altitude chart data...

THORAD AGENA D DEB Visibility forecast

Observer location: undefined°, undefined°

Span
Click to sort rows by Start time (UTC) header in descending order
Start Az.
Max El. time (UTC)
Max El. Az.
Max El.
End time (UTC)
End Az.
14 mins2025-07-03 05:14:22.071Z155.193° SSE2025-07-03 05:20:22.071Z41.833° NE44.274°2025-07-03 05:28:22.071Z347.517° N
9 mins2025-07-03 07:07:22.071Z237.494° WSW2025-07-03 07:11:22.071Z274.021° WNW19.089°2025-07-03 07:16:22.071Z313.626° NW
12 mins2025-07-03 16:59:22.071Z45.874° ENE2025-07-03 17:05:22.071Z95.763° ESE23.429°2025-07-03 17:11:22.071Z142.283° SSE
15 mins2025-07-03 18:48:22.071Z9.975° NNE2025-07-03 18:55:22.071Z305.482° NW43.66°2025-07-03 19:03:22.071Z207.826° SW
9 mins2025-07-03 20:40:22.071Z338.072° N2025-07-03 20:44:22.071Z308.174° NW17.271°2025-07-03 20:49:22.071Z272.429° WNW
10 mins2025-07-04 03:42:22.071Z90.892° ESE2025-07-04 03:46:22.071Z55.323° ENE20.814°2025-07-04 03:52:22.071Z9.037° NNE
|